Погода в Ковде

Погода в Ковде : погода сейчас, прогноз погоды и архив. Всё, что Вы хотите узнать о погоде в Ковде!

Поиск расширенной информации на нашем сайте:

Другие новости

Новости СМИ2

Главная страница сайта

Новости сайта

02.10.2013

Напоминаем, что на нашем новом сайте вы можете получить высокодетализированные прогнозы погоды по пунктам России, СНГ и мира (включающие важные для авиации метеовеличины, такие как направление и скорость ветра, видимость, явления погоды, количество и форма облачности, нижняя и верхняя граница облачности), а также ознакомиться с разнообразными материалами по авиационной метеорологии и подборкой полезных ссылок на эту тему.

Сайт Метеоцентр.Азия посвящён разработке технологий оптимизации авиаметеорологического обслуживания, включая проектирование и перспективное создание нескольких автоматизированных авиаметеорологических систем:
- система выпуска высокодетальных прогностических карт явлений погоды для нижнего воздушного пространства по России и ближнему зарубежью;
- система верификации прогнозов TAF (выпускаемых синоптиками официальных АМСГ РФ и ближнего зарубежья) и AUTOTAF (выпускаемых сайтом Метеоцентр.Азия) - выявление ошибок, онлайн-сопоставление с фактической погодой METAR, автоматическое внесение коррективов в прогнозы при резком отклонении фактической погоды от прогноза, подсчёт оправдываемости прогнозов по элементам и в целом;
- система обработки, анализа и отображения авиаметеорологической информации для применения провайдерами метеорологической информации.

Рекомендуем: Организации National University of Ireland.

Погода в Ковде - сегодня

Время (UTC), дата Ветер
(°,м/с) 
Видим.   Явления Облачность Т
(°С)
Тd
(°С)
f(%) Тe
(°С)
Pmin
(гПа)
dP
(гПа)
Po
(мм)
O2
(г/м3)
Тmin Tmax R s Состояние
почвы
09 26.04.17 070 (В) 4-9  20000 м    9/6 600 м верхняя 
[Sc|Ci fib]
+3.1 -5.5 53 +1  1004.5  -4  752  300           
12 26.04.17 090 (В) 5-12{12}  20000 м    10/10 600 м 
[Sc]
+3.7 -4.4 55 +1  1001.1  -3.4  749  298           
15 26.04.17 090 (В) 7-14{20}  4000 м  слаб. ливневой снег  10/10 300 м кучево-дожд. 
[Cb cap]
+0 -0.6 96 -4  998.8  -2.3  747  301         
18 26.04.17 090 (В) 5-10{14}  2000 м  ливневой снег  10/10 300 м кучево-дожд. 
[Cb cap]
-0.8 -1.2 97 -4  997.1  -1.7  746  302    +4.1     
21 26.04.17 080 (В) 3-7{12}  н/о    н/о 
-0.6 -1 97 -2  996.5  -0.6  746  301           
00 27.04.17 050 (СВ) 4-7  н/о    н/о 
-1.5 -2 96 -4  996.2  -0.3  746  302           
03 27.04.17 030 (СВ) 4-7  н/о    н/о 
-2.3 -3.3 93 -5  996.5  0.3  746  303  -2.3         
06 27.04.17 030 (СВ) 3-5  20000 м    9/8 600 м средняя, верхняя 
[Sc|Ac trans|Ci fib]
-1.5 -3.1 89 -3  997  0.5  746  303  -2.3    46  неравномерный
сухой снег
100% 
09 27.04.17 360 (С) 3-5  20000 м    10/10 600 м 
[Sc]
+0.1 -2.1 85 -2  998.5  1.5  747  301           
12 27.04.17 330 (СЗ) 5-8  4000 м  слаб. ливневой снег  10/10 300 м кучево-дожд. 
[Cb cap]
+0.1 -0.9 93 -3  1000.8  2.3  749  302           
15 27.04.17 340 (С) 5-8  4000 м  слаб. ливневой снег  10/10 300 м кучево-дожд. 
[Cb cap]
+0.5 -0.2 95 -2  1003.1  2.3  751  302         
18 27.04.17 020 (С) 6-9{13}  2000 м  ливневой снег  10/10 300 м кучево-дожд. 
[Cb cap]
-0.3 -1.1 94 -4  1005.9  2.8  753  304    +0.5     
21 27.04.17 350 (С) 6-8  н/о    н/о 
-0.3 -1.2 94 -4  1009.3  3.4  755  305           
00 28.04.17 020 (С) 5-8{10}  н/о    н/о 
-0.7 -4 78 -4  1012.7  3.3  758  307           
03 28.04.17 360 (С) 5-8  н/о    н/о 
-1 -4.9 75 -4  1016.1  3.3  760  308  -1.4         
06 28.04.17 340 (С) 5-8  20000 м    9/9 600 м 
[Sc]
+0.2 -4.4 71 -3  1019.8  3.6  763  308  -1.4    0.4  46  неравномерный
мокрый или
старый снег
100% 
09 28.04.17 360 (С) 4-6  20000 м  осадки на расстоянии  9/9 300 м кучево-дожд., средняя 
[Cb cap|Ac trans]
+2 -5.1 59 1022.9  3.1  766  307           
12 28.04.17 020 (С) 3-6  20000 м    9/8 600 м средняя, верхняя 
[Sc|Ac trans|Ci fib]
+3.4 -7.8 44 +2  1025.9  2.9  768  306           
15 28.04.17 030 (СВ) 1-2  20000 м  осадки на расстоянии  3/3 300 м кучево-дожд. 
[Cb cap]
+4.2 -8.5 39 +5  1027.9  769  306      0.4     
18 28.04.17 тихо ()   20000 м    ясно 
+2.3 -8.4 45 +2  1029.5  1.6  770  309    +4.8       
21 28.04.17 260 (З) 2-2  н/о    н/о 
-2.3 -6.7 72 -3  1031.5  772  314           
00 29.04.17 290 (З) 2-2  н/о    н/о 
-3.4 -6.8 77 -5  1032.7  1.2  773  316           
03 29.04.17 240 (ЮЗ) 2-2  н/о    н/о 
-4.1 -6.6 83 -5  1033.7  0.9  774  317  -5.2         
06 29.04.17 260 (З) 1-2  20000 м    ясно 
+4.6 -5.9 46 +5  1034.6  774  308  -5.2      40  неравномерный
мокрый или
старый снег
100% 
09 29.04.17 050 (СВ) 1-3  20000 м    1/1 600 м 
[Cu hum]
+5.8 -6.2 42 +7  1035.1  775  306           
Время (UTC), дата Ветер
(°,м/с) 
Видим.   Явления Облачность Т
(°С)
Тd
(°С)
f(%) Тe
(°С)
Pmin
(гПа)
dP
(гПа)
Po
(мм)
O2
(г/м3)
Тmin Tmax R s Состояние
почвы

Для получения пояснительной информации подведите курсор к названию столбца.

ПОГОДА в Ковде - архив

Всё, что Вы хотите узнать о погоде в Ковде - удобно и подробно!

Выберите нужную дату (начиная с 1 января 2015* года) и нажмите кнопку "Найти".
Будут отображены архивные сводки погоды по пункту Ковда, начиная с указанной даты.


Отображать данные в формате CSV (для использования в таблицах Excel)


Внимание! Наш архив погоды предназначен исключительно для личного некоммерческого использования в познавательных целях. Если Вам необходимы официальные справки о состоянии погоды (для производственных, юридических, коммерческих и т.п. целей), обращайтесь в органы Росгидромета.

*Примечание: данная дата относится к архиву по метеостанциям СССР (Россия, СНГ, Балтия).
Архив по метеостанциям Зарубежной Европы и Азии (кроме Китая) хранится 10 дней, по другим регионам земного шара (Китай, Африка, Америка, Австралия, Океания) - 1 день.

Ковда - район местоположения метеостанции


Название, широта, долгота, высота метеостанции:
Ковда 66.7°ш. 32.9°д. 18 м над ур. моря [Российская Федерация]

Дополнительная информация

В oтличие oт бoльшинства пoгoдных сайтoв мы публикуем пoдрoбную метеoинфoрмацию в детальнoм прoфессиoнальнoм фoрмате.

Характеристики температуры и влажнoсти вoздуха измеряются на высoте 2 м в тени вдали oт зданий и деревьев.
Скoрoсть ветра измеряется на высoте 10 м (на урoвне рoста челoвека скoрoсть ветра ниже в 1.5-2 раза). Если метеoстанция нахoдится в гoрoде или в лесу, тo скoрoсть ветра занижена на 2-4 м/с пo сравнению с oткрытым местoм. Скoрoсть ветра над акватoриями крупных рек и oзёр, а также на вершинах хoлмoв на 2-5 м/с выше, чем в oбычных услoвиях.
Атмoсфернoе давление в разных тoчках местнoсти мoжет значительнo oтличаться oт давления на метеoстанции, в зависимoсти oт услoвий рельефа (при пoдъёме на 10 м давление пoнижается примернo на 1 мм рт.ст.).